RH
59 58 58 59 58 55 51 49 45 41 38 36 35 35 35 34 32 31 30 28 24 23 25 29 29 34 35 40 54 65 50 72 82 93 78 83 98 92 88 86 92 92 91
64 63 63 64 63 62 60 56 52 48 45 42 41 39 37 35 32 31 30 31 31 29 28 28 31 34 36 37 41 39 74 68 63 68 72 82 93 95 86 84 89 93 94
68 69 69 69 69 67 64 61 57 54 51 49 42 38 35 32 29 27 26 27 29 31 31 33 35 35 37 43 43 44 51 67 60 61 78 77 70 74 94 91 87 91 96
81 81 80 79 78 73 66 63 59 55 52 48 40 35 31 29 28 26 23 23 24 28 31 34 38 38 45 44 51 43 43 43 47 57 62 85 83 80 93 98 92 95 97
85 82 81 80 75 68 64 62 59 54 51 46 41 37 31 30 28 26 25 24 25 27 30 32 37 42 44 47 54 58 48 44 47 46 59 78 72 98 89 93 99 98 97
87 88 84 78 73 68 65 61 54 49 44 42 40 36 34 32 31 28 28 26 28 28 29 33 36 39 43 49 54 61 56 46 44 47 52 63 66 87 77 90 97 97 97
88 87 80 75 73 71 68 63 56 52 47 39 36 31 30 30 30 31 30 32 32 32 32 32 36 39 41 47 51 57 57 51 49 46 55 67 71 71 62 73 82 84 94
86 81 83 83 80 76 73 67 62 54 43 37 32 28 29 29 29 28 28 33 36 36 38 37 36 40 43 46 50 51 60 56 56 50 57 58 56 70 79 89 89 82 82
88 89 90 87 84 80 73 67 63 53 45 39 29 28 26 23 24 26 27 28 33 38 41 43 42 44 45 47 51 57 64 59 60 55 52 56 54 66 63 75 74 70 82
86 87 88 86 82 78 76 71 61 47 41 32 27 24 20 20 20 22 22 25 29 36 45 51 51 51 51 54 58 59 65 65 61 59 60 58 58 57 68 75 70 69 68
84 86 85 83 82 80 78 66 51 45 36 30 26 24 24 22 20 19 21 22 25 32 43 51 58 62 64 64 63 64 68 71 67 65 67 61 58 54 63 65 62 74 63
88 87 86 80 75 68 60 54 45 39 36 32 31 30 24 23 21 20 20 21 22 27 37 54 66 73 82 80 74 73 76 75 75 71 69 72 61 58 60 59 53 63 68
86 80 74 68 61 58 51 46 41 41 38 33 27 26 24 22 22 21 20 21 23 23 33 53 75 87 90 93 92 87 84 78 78 77 75 72 74 65 60 60 55 60 64
73 72 70 65 56 50 47 45 42 37 33 31 29 26 25 23 22 21 22 23 24 25 31 47 76 94 94 98 97 97 92 88 82 81 84 79 74 68 70 64 61 66 68
74 68 62 57 52 46 43 41 39 37 37 35 34 33 30 28 26 24 24 25 25 27 34 46 77 95 97 98 99 97 96 90 86 90 85 78 81 78 75 75 73 77 81
68 68 63 54 50 45 42 41 41 40 41 38 37 36 36 35 35 31 28 27 27 29 39 53 80 93 97 99 99 97 98 96 95 92 92 85 77 76 79 77 77 77 79
65 59 55 52 49 45 45 42 40 40 40 40 40 40 40 40 40 40 37 31 30 34 43 63 81 93 98 99 98 98 98 98 98 99 94 91 85 79 76 82 83 86 85
62 57 52 49 47 46 43 41 44 45 44 44 43 44 44 43 43 44 43 35 33 38 50 75 85 94 98 98 98 98 98 99 98 98 99 97 94 91 85 85 84 87 86
59 55 52 50 47 46 44 44 47 49 49 49 48 49 48 46 47 48 45 37 37 42 67 85 93 97 98 98 98 98 99 98 98 98 97 99 98 95 93 92 93 92 91
57 53 46 42 43 43 45 49 52 53 54 55 54 53 51 48 49 52 47 39 42 54 83 92 97 98 98 99 99 98 98 98 98 98 95 95 97 97 98 94 88 81 82
55 47 43 44 45 47 50 54 58 59 60 59 57 54 53 51 56 53 45 44 51 70 93 97 98 98 98 98 98 98 98 97 98 98 98 98 98 98 97 95 84 84 85
43 42 44 44 46 51 55 59 61 61 61 61 57 56 55 58 56 48 48 52 67 92 97 98 98 98 98 98 98 98 98 97 98 98 99 98 99 98 97 88 84 88 90
42 44 46 46 50 56 62 63 64 64 64 65 60 60 61 61 52 52 54 62 91 97 97 98 98 98 98 98 98 98 98 98 98 98 99 98 98 98 92 89 89 91 93
43 45 48 48 51 61 68 70 69 68 72 70 67 64 65 60 55 58 61 86 97 97 97 98 97 97 97 97 98 98 98 98 98 98 98 98 98 91 90 90 92 93 91
46 48 50 51 54 65 71 72 73 74 76 75 72 68 67 63 59 62 75 96 97 97 98 98 98 97 97 97 98 98 98 98 98 98 98 98 95 93 94 94 95 92 88
49 49 52 54 58 68 73 76 78 79 82 80 74 71 71 68 63 66 88 98 98 98 98 97 97 97 97 97 98 98 98 98 98 98 98 98 97 97 96 96 91 82 77